User: anonymous   Login
Location: Berkeley
(37.8716°N, 122.2727°W)
Time: 10:41:37
(UTC-07:00)
Language:

EO-79 - Orbit

View from above orbital plane
View from above orbital plane
View from above satellite
View from above satellite

Ground track
Ground track

The orbit data is extracted from the following two-line orbital elements,

1 40025U 14033R   19286.83317820  .00000241  00000-0  31631-4 0  9995
2 40025  97.9039 206.3148 0013421  39.2123 321.0063 14.88997025288753
Epoch (UTC): 13 October 2019 19:59:46
Eccentricity: 0.0013421
inclination: 97.9039°
perigee height: 592 km
apogee height: 610 km
right ascension of ascending node: 206.3148°
argument of perigee: 39.2123°
revolutions per day: 14.88997025
mean anomaly at epoch: 321.0063°
orbit number at epoch: 28875

The dashed part of the orbit path shows where the satellite is in the earth's shadow,  

DLR